Weather History for 94767 - October, 2013

Change the Weather History Date:

Sunday, October 20, 2013

  Actual Average Record
Temperature  
Mean Temperature 70 °F -  
Max Temperature 82 °F 74 °F - ()
Min Temperature 59 °F 58 °F - ()
Cooling Degree Days 6    
Growing Degree Days 20 (Base 50)    
Moisture  
Dew Point 57 °F    
Average Humidity 60    
Maximum Humidity 83    
Minimum Humidity 28    
Precipitation  
Precipitation 0.00 in 0.12 in - ()
Sea Level Pressure  
Sea Level Pressure 30.09 in    
Wind  
Wind Speed 8 mph ()    
Max Wind Speed 23 mph    
Max Gust Speed -    
Visibility 7.8 miles    
Events      
T = Trace of Precipitation, MM = Missing Value Source: Averaged Metar Reports

Daily Weather History Graph

Daily Weather History Graph

Search for Another Location

Airport or City:

Trip Planner

Search our weather history database for the weather conditions in past years. The results will help you decide how hot, cold, wet, or windy it might be!

Date:

Astronomy

Oct. 20, 2013 Rise Set
Actual Time 6:08 AM AEDT 7:12 PM AEDT
Civil Twilight 5:42 AM AEDT 7:38 PM AEDT
Nautical Twilight 5:11 AM AEDT 8:09 PM AEDT
Astronomical Twilight 4:40 AM AEDT 8:40 PM AEDT
Moon 8:28 PM AEDT (10/20) 6:39 AM AEDT (10/20)
Length of Visible Light 13h 56m
Length of Day
13h 04m
Full, 99% of the Moon is Illuminated
Oct 20
Full
Oct 27
Last Quarter
Nov 3
New
Nov 10
First Quarter
Nov 18
Full

Hourly Weather History & Observations

Time (AEDT) Temp. Heat Index Dew Point Humidity Pressure Visibility Wind Dir Wind Speed Gust Speed Precip Events Conditions
12:00 AM 66 °F - 57 °F 64% 30.23 in 14 mi NW 8.1 mph - -   Haze
12:00 AM 66.2 °F - 57.2 °F 73% 30.21 in 6.2 mi NW 8.1 mph - N/A   Scattered Clouds
12:30 AM 66.2 °F - 57.2 °F 73% 30.21 in 6.2 mi NW 5.8 mph - N/A   Mostly Cloudy
1:00 AM 66 °F - 56 °F 63% 30.22 in - WNW 8.1 mph - -  
1:00 AM 66.2 °F - 57.2 °F 73% 30.21 in 6.2 mi WNW 8.1 mph - N/A   Mostly Cloudy
1:30 AM 64.4 °F - 55.4 °F 73% 30.18 in 6.2 mi WNW 6.9 mph - N/A   Partly Cloudy
2:00 AM 64 °F - 55 °F 65% 30.19 in - NW 6.9 mph - -  
2:00 AM 64.4 °F - 55.4 °F 73% 30.18 in 6.2 mi NW 6.9 mph - N/A   Mostly Cloudy
2:30 AM 62.6 °F - 55.4 °F 77% 30.18 in 6.2 mi WNW 5.8 mph - N/A   Partly Cloudy
3:00 AM 62.6 °F - 55.4 °F 77% 30.18 in 6.2 mi NW 5.8 mph - N/A   Partly Cloudy
3:30 AM 62.6 °F - 55.4 °F 77% 30.18 in 6.2 mi NW 5.8 mph - N/A   Partly Cloudy
4:00 AM 63 °F - 54 °F 66% 30.18 in - NNW 4.6 mph - -  
4:00 AM 62.6 °F - 55.4 °F 77% 30.15 in 6.2 mi NNW 4.6 mph - N/A   Scattered Clouds
4:12 AM 62.6 °F - 55.4 °F 77% 30.15 in 6.2 mi North 4.6 mph - N/A   Mostly Cloudy
4:26 AM 62.6 °F - 53.6 °F 72% 30.15 in 6.2 mi North 5.8 mph - N/A   Scattered Clouds
4:30 AM 62.6 °F - 53.6 °F 72% 30.15 in 6.2 mi North 5.8 mph - N/A   Partly Cloudy
5:00 AM 62 °F - 54 °F 69% 30.17 in - North 5.8 mph - -  
5:00 AM 62.6 °F - 53.6 °F 72% 30.15 in 6.2 mi North 5.8 mph - N/A   Partly Cloudy
5:30 AM 60.8 °F - 53.6 °F 77% 30.15 in 6.2 mi North 5.8 mph - N/A   Partly Cloudy
6:00 AM 61 °F - 55 °F 73% 30.17 in 12 mi NW 5.8 mph - -   Haze
6:00 AM 60.8 °F - 55.4 °F 82% 30.15 in 6.2 mi NW 5.8 mph - N/A   Partly Cloudy
6:30 AM 60.8 °F - 55.4 °F 82% 30.18 in 6.2 mi WNW 5.8 mph - N/A   Scattered Clouds
7:00 AM 63 °F - 55 °F 67% 30.19 in - WNW 6.9 mph - -  
7:00 AM 62.6 °F - 55.4 °F 77% 30.18 in 6.2 mi WNW 6.9 mph - N/A   Partly Cloudy
7:30 AM 64.4 °F - 55.4 °F 73% 30.18 in 6.2 mi North 4.6 mph - N/A   Partly Cloudy
8:00 AM 66 °F - 56 °F 61% 30.18 in - NW 8.1 mph - -  
8:00 AM 66.2 °F - 55.4 °F 68% 30.18 in 6.2 mi NW 8.1 mph - N/A   Partly Cloudy
9:00 AM 70 °F - 57 °F 53% 30.17 in 12 mi North 8.1 mph - -   Haze
9:00 AM 69.8 °F - 57.2 °F 64% 30.15 in - North 8.1 mph - N/A   Clear
9:30 AM 71.6 °F - 55.4 °F 57% 30.15 in - North 9.2 mph - N/A   Clear
10:00 AM 75 °F - 56 °F 41% 30.16 in - North 8.1 mph - -  
10:00 AM 75.2 °F - 55.4 °F 50% 30.15 in - North 8.1 mph - N/A   Clear
10:30 AM 75.2 °F - 53.6 °F 47% 30.12 in - NNW 8.1 mph - N/A   Clear
11:00 AM 78 °F - 55 °F 34% 30.13 in - North 9.2 mph - -  
11:00 AM 77.0 °F - 55.4 °F 47% 30.12 in - North 9.2 mph - N/A   Clear
11:30 AM 77.0 °F - 55.4 °F 47% 30.09 in - South 6.9 mph - N/A   Clear
12:00 PM 78 °F - 55 °F 34% 30.09 in 12 mi NE 6.9 mph - -   Haze
12:00 PM 78.8 °F - 55.4 °F 44% 30.09 in - NE 6.9 mph - N/A   Clear
12:30 PM 80.6 °F 80.5 °F 55.4 °F 42% 30.06 in - NNE 8.1 mph - N/A   Clear
1:00 PM 82 °F - 54 °F 28% 30.06 in - ENE 12.7 mph - -  
1:00 PM 82.4 °F 81.4 °F 53.6 °F 37% 30.06 in - ENE 12.7 mph - N/A   Clear
1:30 PM 80.6 °F 80.8 °F 57.2 °F 45% 30.04 in - ENE 16.1 mph - N/A   Clear
2:00 PM 79 °F - 57 °F 37% 30.04 in - NE 15.0 mph - -  
2:00 PM 78.8 °F - 57.2 °F 47% 30.04 in - NE 15.0 mph - N/A   Clear
2:30 PM 78.8 °F - 57.2 °F 47% 30.01 in - ENE 16.1 mph - N/A   Clear
3:00 PM 77 °F - 58 °F 41% 30.01 in 12 mi ENE 18.4 mph - -   Smoke
3:00 PM 77.0 °F - 57.2 °F 50% 30.01 in - ENE 18.4 mph - N/A   Clear
3:30 PM 77.0 °F - 57.2 °F 50% 29.98 in - NE 17.3 mph - N/A   Clear
4:00 PM 76 °F - 59 °F 45% 29.99 in - NE 18.4 mph - -  
4:00 PM 75.2 °F - 59.0 °F 57% 29.98 in - NE 18.4 mph - N/A   Clear
4:30 PM 75.2 °F - 59.0 °F 57% 29.98 in - NNE 19.6 mph - N/A   Clear
5:00 PM 77 °F - 59 °F 44% 29.98 in - NE 23.0 mph - -  
5:00 PM 77.0 °F - 59.0 °F 54% 29.98 in - NE 23.0 mph - N/A   Clear
5:30 PM 75.2 °F - 59.0 °F 57% 29.95 in - NNE 23.0 mph - N/A   Clear
6:00 PM 74 °F - 60 °F 53% 29.96 in 12 mi NNE 20.7 mph - -   Smoke
6:00 PM 75.2 °F - 60.8 °F 61% 29.95 in - NNE 20.7 mph - N/A   Clear
6:30 PM 73.4 °F - 60.8 °F 65% 29.95 in - NE 20.7 mph - N/A   Clear
7:00 PM 71.6 °F - 60.8 °F 69% 29.98 in - NE 20.7 mph - N/A   Clear
7:30 PM 73.4 °F - 59.0 °F 61% 29.98 in - NE 15.0 mph - N/A   Clear
8:00 PM 74 °F - 57 °F 46% 29.99 in - NNE 13.8 mph - -  
8:00 PM 73.4 °F - 57.2 °F 57% 29.98 in - NNE 13.8 mph - N/A   Clear
8:30 PM 73.4 °F - 57.2 °F 57% 29.98 in - North 15.0 mph - N/A   Clear
9:00 PM 74 °F - 58 °F 46% 30.01 in 12 mi North 12.7 mph - -   Smoke
9:00 PM 73.4 °F - 57.2 °F 57% 30.01 in - North 12.7 mph - N/A   Clear
9:30 PM 73.4 °F - 57.2 °F 57% 30.01 in - NNE 9.2 mph - N/A   Clear
10:00 PM 70 °F - 58 °F 56% 30.03 in - NE 1.2 mph - -  
10:00 PM 69.8 °F - 57.2 °F 64% 30.01 in - NE 1.2 mph - N/A   Clear
10:30 PM 69.8 °F - 59.0 °F 68% 30.01 in - East 1.2 mph - N/A   Clear
11:00 PM 68 °F - 61 °F 71% 30.02 in - Calm Calm - -  
11:00 PM 68.0 °F - 60.8 °F 78% 30.01 in - Calm Calm - N/A   Clear
11:30 PM 66.2 °F - 60.8 °F 83% 30.01 in - East 5.8 mph - N/A   Clear